Weather in Kargashino

Russia / Republic of Mordovia     54°12′02″N   42°36′53″E
temp.,
°C
wind,
m/s
gust,
m/s
humid.,
%
clouds,
%
prec.,
mm/h
press.,
hPa
HPBL,
m
26 february, fri
fri2600:00+1wnw41097100 0.0 1013400
03:00+1w3897100 0.0 1013324
06:000wsw3698100 0.0 1012223
09:00+1ssw36100100 0.5 1010190
12:00+2sw411100100 1.2 1007321
15:00+3wsw51399100 1.9 1004439
18:00+3wsw61698100 0.9 1002596
21:00+2w61496100 1.2 1002806
27 february, sat
sat2700:00+1w61394100 0.1 1001828
03:00+1w61393100 0.1 1001865
06:00+1w61390100 0.0 999884
09:00+1w71493100 0.2 9991017
12:00−8nw61086100 0.9 1001857
15:00−8nw61086100 1.1 1004882
18:00−10nnw51088100 0.1 1007796
21:00−11nnw41091100 0.1 1010632
28 february, sun
sun2800:00−12nnw4993100 0.0 1011565
03:00−14nnw389599 0.1 1014361
06:00−15nnw379569 0.0 1014235
09:00−14nnw359164 0.0 1016297
12:00−11nnw358476 0.0 1016512
15:00−9nw358688 0.0 1016575
18:00−12nnw2395100 0.0 101761
21:00−13n229686 0.1 102028
1 march, mon
mon100:00−15nne12967 0.0 102120
03:00−15nnw12953 0.0 102320
06:00−16nnw22969 0.0 102423
09:00−13nnw129112 0.0 1026154
12:00−8wnw228491 0.0 1026397
15:00−7w348895 0.0 1025435
18:00−10sw249688 0.0 1023102
21:00−5wsw4109494 0.1 1022564
2 march, tue
tue200:00−4wsw51194100 0.3 1018424
03:00−1w51296100 0.9 1015567
06:00+1wnw51297100 0.9 1013606
09:000wnw51198100 1.4 1012621
12:00+1nw51098100 0.1 1011760
15:00+1nw61198100 0.3 1010900
18:000nw5128998 0.2 1011881
21:00−1nw4119397 0.3 1012761